Stations météo

Publicité
Bergerac, France (7530): Température de l'air & dewpoint: 17.06.2017 17:00:00 - 23.06.2017 17:00:00 (CEST)Bergerac, France (7530): Température de l'air 5cm: 17.06.2017 17:00:00 - 23.06.2017 17:00:00 (CEST)Bergerac, France (7530): Température de l'air -20cm & Température de l'air -100cm: 17.06.2017 17:00:00 - 23.06.2017 17:00:00 (CEST)Bergerac, France (7530): Vitesse du vent & gusts: 17.06.2017 17:00:00 - 23.06.2017 17:00:00 (CEST)Bergerac, France (7530): Direction du vent: 17.06.2017 17:00:00 - 23.06.2017 17:00:00 (CEST)Bergerac, France (7530): reduced air pressure: 17.06.2017 17:00:00 - 23.06.2017 17:00:00 (CEST)Bergerac, France (7530): visibility: 17.06.2017 17:00:00 - 23.06.2017 17:00:00 (CEST)Bergerac, France (7530): Ensoleillement: 17.06.2017 17:00:00 - 23.06.2017 17:00:00 (CEST)Bergerac, France (7530): Quantités de précipitations: 17.06.2017 17:00:00 - 23.06.2017 17:00:00 (CEST)
Date & Time tt [°C] td [°C] tt 5cm [°C] tt -20cm [°C] tt -100cm [°C] ff [km/h] ff [knt] fx [km/h] fx [knt] dd ppp [hPa] vv [km] sd [min] rr [mm]
23.06.2017 17:00:00 24,7 17,2 26,5 22,9 18,5 14 7 23 13 W 1021,8 49 0 0,0
23.06.2017 16:00:00 25,6 17,8 29,3 22,9 18,5 11 6 20 11 WSW 1021,9 47 0 0,0
23.06.2017 15:00:00 24,9 17,9 29,4 22,8 18,4 11 6 20 11 W 1022,2 44 3 0,0
23.06.2017 14:00:00 24,3 18,2 26,0 22,8 18,4 8 5 16 9 W 1022,5 20 2 0,0
23.06.2017 13:00:00 22,7 18,0 25,6 22,9 18,4 8 5 17 9 W 1022,9 34 0 0,0
23.06.2017 12:00:00 22,2 18,0 25,2 22,9 18,4 9 5 15 8 W 1022,8 20 0 0,0
23.06.2017 11:00:00 20,7 18,5 19,5 23,0 18,4 6 4 18 10 NNW 1022,6 19 0 0,0
23.06.2017 10:00:00 19,7 19,0 19,8 23,1 18,4 9 5 17 9 WNW 1022,6 4,4 0 0,2
23.06.2017 09:00:00 19,8 19,0 19,3 23,2 18,4 8 4 13 7 W 1022,2 3,9 0 0,0
23.06.2017 08:00:00 19,7 18,5 19,3 23,3 18,4 9 5 16 9 W 1021,7 5 0 0,0
23.06.2017 07:00:00 20,7 18,1 20,3 23,4 18,4 11 6 16 8 WNW 1021,1 12 0 0,0
23.06.2017 06:00:00 21,1 18,3 20,4 23,5 18,4 10 6 15 8 W 1020,8 12 0 0,0
23.06.2017 05:00:00 20,8 18,9 20,3 23,7 18,4 11 6 26 14 WNW 1020,7 8 0 0,0
23.06.2017 04:00:00 22,0 19,4 21,6 23,8 18,4 14 8 22 12 W 1020,3 12 0 0,0
23.06.2017 03:00:00 22,7 19,5 22,3 23,9 18,4 10 5 19 10 WSW 1020,1 14 0 0,0
23.06.2017 02:00:00 23,0 19,4 22,6 24,1 18,3 12 7 27 15 W 1019,8 16 0 0,0
23.06.2017 01:00:00 23,0 19,2 22,6 24,2 18,4 19 10 27 15 W 1019,7 15 0 0,0
23.06.2017 00:00:00 22,9 19,3 - - - 16 9 39 21 W 1019,3 12 - 0,0
22.06.2017 23:00:00 23,4 19,5 22,8 24,4 18,3 20 11 37 20 W 1018,9 12 0 0,0
22.06.2017 22:00:00 25,6 19,5 24,6 24,4 18,3 22 12 37 20 W 1017,4 17 0 0,0
22.06.2017 21:00:00 28,0 20,6 27,3 24,4 18,3 20 11 35 19 W 1016,3 15 47 0,0
22.06.2017 20:00:00 31,1 21,3 32,1 24,3 18,3 27 15 37 20 W 1015,8 14 60 0,0
22.06.2017 19:00:00 35,2 17,9 35,4 24,1 18,3 16 8 24 13 W 1015,0 19 49 0,0
22.06.2017 18:00:00 36,1 17,8 40,2 23,9 18,3 12 6 23 12 W 1015,1 20 60 0,0
22.06.2017 17:00:00 36,4 16,6 41,7 23,5 18,2 11 6 25 14 W 1015,3 24 60 0,0
22.06.2017 16:00:00 36,0 16,7 42,8 23,2 18,3 14 8 24 13 WNW 1015,6 29 60 0,0
22.06.2017 15:00:00 36,2 17,8 43,2 22,9 18,2 5 3 18 10 S 1015,8 20 60 0,0
22.06.2017 14:00:00 35,1 18,2 42,8 22,7 18,2 7 4 18 10 SW 1016,0 19 60 0,0
22.06.2017 13:00:00 34,2 18,7 40,7 22,5 18,2 4 2 14 7 SSE 1016,3 16 60 0,0
22.06.2017 12:00:00 32,1 19,7 38,1 22,4 18,2 3 1 13 7 SSE 1016,4 15 60 0,0
22.06.2017 11:00:00 30,0 21,1 35,2 22,5 18,2 4 2 14 8 W 1016,5 16 60 0,0
22.06.2017 10:00:00 27,9 21,0 28,4 22,6 18,2 2 1 8 5 E 1016,3 15 60 0,0
22.06.2017 09:00:00 23,8 20,3 23,9 22,7 18,2 5 3 9 5 NNE 1016,3 14 60 0,0
22.06.2017 08:00:00 20,3 18,8 17,2 22,9 18,2 6 3 8 5 ENE 1015,9 11 60 0,0
22.06.2017 07:00:00 16,9 16,6 13,2 23,1 18,2 5 3 9 5 NE 1015,3 12 23 0,0
22.06.2017 06:00:00 16,1 15,6 12,3 23,2 18,2 3 1 6 3 E 1015,3 11 0 0,0
22.06.2017 05:00:00 16,8 16,3 13,1 23,4 18,2 2 1 5 3 E 1015,2 12 0 0,0
22.06.2017 04:00:00 17,3 16,3 13,5 23,6 18,1 4 2 6 3 ENE 1015,2 11 0 0,0
22.06.2017 03:00:00 18,2 17,4 14,7 23,8 18,1 4 2 5 3 ENE 1015,4 11 0 0,0
22.06.2017 02:00:00 19,4 17,7 16,2 23,9 18,1 3 1 9 5 SSE 1015,4 14 0 0,0
22.06.2017 01:00:00 20,8 17,6 16,9 24,0 18,1 2 1 8 4 E 1015,3 23 0 0,0
22.06.2017 00:00:00 22,8 17,9 18,1 24,1 18,1 0 0 8 5 N 1015,0 20 0 0,0
21.06.2017 23:00:00 25,1 18,5 20,2 24,2 18,1 6 3 13 7 WSW 1015,0 25 0 0,0
21.06.2017 22:00:00 27,1 21,2 22,4 24,2 18,1 4 2 10 5 S 1014,3 21 12 0,0
21.06.2017 21:00:00 32,6 20,2 31,2 24,1 18,1 3 1 12 7 SW 1013,8 13 60 0,0
21.06.2017 20:00:00 34,3 17,1 34,7 24,0 18,1 8 5 16 8 W 1013,4 27 60 0,0
21.06.2017 19:00:00 35,4 17,1 38,9 23,8 18,0 7 4 18 10 WSW 1013,2 20 60 0,0
21.06.2017 18:00:00 35,7 16,4 39,8 23,6 18,1 10 6 19 11 W 1013,2 27 60 0,0
21.06.2017 17:00:00 36,5 18,1 39,6 23,3 18,0 5 3 19 10 S 1013,1 23 58 0,0
21.06.2017 16:00:00 35,5 19,0 42,8 23,0 18,1 8 4 18 10 S 1013,6 19 60 0,0
21.06.2017 15:00:00 35,1 17,8 42,8 22,7 18,0 8 4 17 9 S 1014,1 22 60 0,0
21.06.2017 14:00:00 34,1 20,1 41,9 22,5 18,0 7 4 17 9 SSW 1014,8 16 60 0,0
21.06.2017 13:00:00 33,1 20,6 40,7 22,3 18,0 5 3 10 5 SE 1015,2 20 60 0,0
21.06.2017 12:00:00 31,5 20,8 38,6 22,2 18,0 4 2 10 5 SSE 1015,4 23 60 0,0
21.06.2017 11:00:00 30,1 21,5 36,1 22,2 18,0 4 2 13 7 S 1015,5 18 60 0,0
21.06.2017 10:00:00 27,9 21,0 30,0 22,3 18,0 7 4 13 7 SSE 1015,4 20 60 0,0
21.06.2017 09:00:00 25,3 21,2 24,6 22,4 18,0 6 4 11 6 NE 1015,4 19 60 0,0
21.06.2017 08:00:00 22,3 20,4 20,0 22,5 18,0 7 4 12 6 ENE 1015,0 14 60 0,0
21.06.2017 07:00:00 20,0 18,8 17,5 22,6 18,0 3 2 9 5 E 1014,9 14 23 0,0
21.06.2017 06:00:00 19,2 18,5 16,9 22,8 18,0 5 3 6 4 ENE 1014,6 13 0 0,0
21.06.2017 05:00:00 19,6 18,4 17,5 22,9 17,9 5 3 10 5 ENE 1014,3 15 0 0,0
21.06.2017 04:00:00 20,0 19,0 18,0 23,0 17,9 6 4 9 5 ENE 1014,3 15 0 0,0
21.06.2017 03:00:00 20,8 19,5 18,6 23,1 17,9 3 2 7 4 ESE 1014,9 18 0 0,0
21.06.2017 02:00:00 21,1 19,4 18,8 23,2 17,9 4 2 9 5 NE 1015,2 18 0 0,0
21.06.2017 01:00:00 22,3 20,0 19,6 23,3 17,9 4 2 8 5 E 1015,1 20 0 0,0
21.06.2017 00:00:00 23,0 20,5 20,3 23,4 17,9 4 2 7 4 NNE 1015,3 21 0 0,0
20.06.2017 23:00:00 24,8 21,3 21,2 23,4 17,9 5 3 8 4 ENE 1015,0 24 0 0,0
20.06.2017 22:00:00 27,3 21,3 23,1 23,4 17,9 0 0 6 3 N 1014,6 19 21 0,0
20.06.2017 21:00:00 31,6 21,5 31,2 23,3 17,9 2 1 6 3 S 1014,3 19 60 0,0
20.06.2017 20:00:00 34,6 18,2 35,7 23,1 17,9 5 3 14 7 SSW 1014,1 19 60 0,0
20.06.2017 19:00:00 35,2 16,0 40,3 22,9 17,9 6 3 14 8 WNW 1014,0 20 60 0,0
20.06.2017 18:00:00 34,9 16,7 40,9 22,7 17,9 11 6 19 10 WNW 1014,2 20 60 0,0
20.06.2017 17:00:00 35,0 17,7 41,3 22,4 17,9 9 5 24 13 WSW 1014,7 20 60 0,0
20.06.2017 16:00:00 34,6 16,9 41,6 22,1 17,9 9 5 24 13 WSW 1015,1 49 60 0,0
20.06.2017 15:00:00 33,9 16,3 42,1 21,8 17,8 8 5 18 10 WSW 1015,5 20 60 0,0
20.06.2017 14:00:00 33,1 18,1 40,7 21,6 17,9 7 4 18 10 WNW 1016,0 46 60 0,0
20.06.2017 13:00:00 31,8 19,1 34,7 21,5 17,8 7 4 20 11 SSW 1016,3 47 60 0,0
20.06.2017 12:00:00 30,1 18,8 32,8 21,4 17,8 9 5 22 12 S 1016,6 46 60 0,0
20.06.2017 11:00:00 28,6 20,3 30,3 21,4 17,9 10 5 20 11 SE 1016,7 20 60 0,0
20.06.2017 10:00:00 26,7 20,3 26,6 21,5 17,8 11 6 19 11 SSE 1016,9 22 60 0,0
20.06.2017 09:00:00 25,0 19,6 23,0 21,5 17,8 10 5 18 10 SE 1016,8 16 60 0,0
20.06.2017 08:00:00 23,0 18,1 18,5 21,7 17,9 8 4 17 9 E 1016,5 25 43 0,0
20.06.2017 07:00:00 21,0 17,0 17,3 21,7 17,8 5 3 12 7 ENE 1016,6 25 17 0,0
20.06.2017 06:00:00 20,5 16,3 17,3 21,8 17,8 7 4 16 9 ENE 1016,2 29 0 0,0
20.06.2017 05:00:00 20,4 16,4 17,7 21,9 17,8 9 5 14 7 ENE 1015,8 29 0 0,0
20.06.2017 04:00:00 21,0 16,4 17,4 22,0 17,8 10 5 15 8 E 1015,9 33 0 0,0
20.06.2017 03:00:00 22,1 16,6 18,0 22,1 17,8 4 2 15 8 E 1016,5 32 0 0,0
20.06.2017 02:00:00 22,1 16,8 17,8 22,2 17,8 6 4 14 8 E 1016,6 33 0 0,0
20.06.2017 01:00:00 22,7 16,7 18,5 22,2 17,8 7 4 13 7 E 1016,1 10 0 0,0
20.06.2017 00:00:00 25,5 16,6 19,4 22,3 17,8 7 4 16 9 ESE 1016,0 43 0 0,0
19.06.2017 23:00:00 26,7 16,3 19,5 22,3 17,8 11 6 17 9 SSE 1015,8 50 0 0,0
19.06.2017 22:00:00 27,9 15,5 20,9 22,2 17,8 9 5 14 8 SE 1014,7 47 12 0,0
19.06.2017 21:00:00 31,1 15,9 25,5 22,2 17,8 8 5 21 12 ESE 1014,1 59 60 0,0
19.06.2017 20:00:00 33,5 18,0 29,1 22,0 17,7 10 5 21 11 ESE 1013,6 45 60 0,0
19.06.2017 19:00:00 34,5 18,5 32,1 21,9 17,8 12 6 23 12 SE 1013,5 39 60 0,0
19.06.2017 18:00:00 35,1 18,6 36,4 21,7 17,7 13 7 22 12 SSE 1013,7 45 60 0,0
19.06.2017 17:00:00 35,1 18,2 36,5 21,5 17,8 10 6 24 13 SSE 1013,9 20 60 0,0
19.06.2017 16:00:00 34,7 19,5 36,3 21,2 17,7 11 6 23 12 SSE 1014,1 35 60 0,0
19.06.2017 15:00:00 33,5 19,9 37,0 21,0 17,7 9 5 27 15 SE 1014,4 39 60 0,0
19.06.2017 14:00:00 32,2 19,1 35,4 20,8 17,7 14 7 27 14 SE 1014,7 20 60 0,0
19.06.2017 13:00:00 31,5 18,5 33,3 20,7 17,7 12 7 30 16 SSE 1015,0 19 60 0,0
19.06.2017 12:00:00 29,9 18,3 32,1 20,7 17,7 14 7 31 17 SE 1015,2 19 60 0,0
19.06.2017 11:00:00 28,3 17,8 30,5 20,7 17,7 16 9 32 17 ESE 1015,0 20 60 0,0
19.06.2017 10:00:00 26,7 18,0 25,0 20,8 17,7 10 6 19 11 E 1015,4 20 60 0,0
19.06.2017 09:00:00 23,8 16,6 20,9 20,8 17,7 14 7 18 10 ENE 1015,6 20 60 0,0
19.06.2017 08:00:00 21,6 17,0 14,3 21,0 17,7 6 4 10 5 E 1015,8 27 60 0,0
19.06.2017 07:00:00 17,3 15,5 12,6 21,1 17,7 0 0 7 4 N 1015,5 19 23 0,0
19.06.2017 06:00:00 16,9 14,2 13,2 21,2 17,7 3 2 11 6 SE 1015,6 19 0 0,0
19.06.2017 05:00:00 18,0 15,3 13,6 21,4 17,7 6 4 10 6 E 1015,1 30 0 0,0
19.06.2017 04:00:00 18,2 16,4 13,6 21,4 17,7 4 2 11 6 E 1015,3 26 0 0,0
19.06.2017 03:00:00 18,1 16,3 15,2 21,5 17,7 9 5 12 6 E 1015,4 34 0 0,0
19.06.2017 02:00:00 19,5 16,9 16,3 21,6 17,7 9 5 12 7 E 1015,6 47 0 0,0
19.06.2017 01:00:00 20,1 17,5 17,0 21,7 17,7 9 5 14 8 ENE 1015,3 54 0 0,0
19.06.2017 00:00:00 21,0 17,6 17,1 21,7 17,7 10 6 15 8 E 1015,1 60 0 0,0
18.06.2017 23:00:00 22,8 18,6 - - - 4 2 8 4 ENE 1014,8 60 - -
18.06.2017 22:00:00 25,8 19,4 19,4 21,7 17,7 2 1 6 4 E 1014,1 59 12 0,0
18.06.2017 21:00:00 30,4 18,2 24,5 21,6 17,7 5 3 13 7 E 1013,8 35 60 0,0
18.06.2017 20:00:00 32,6 16,0 29,4 21,5 17,7 8 5 21 12 ENE 1013,7 60 60 0,0
18.06.2017 19:00:00 33,1 16,0 31,9 21,3 17,7 7 4 22 12 ENE 1013,8 42 60 0,0
18.06.2017 18:00:00 33,0 15,0 - - - 11 6 26 14 NNE 1013,9 60 - 0,0
18.06.2017 17:00:00 32,8 16,2 35,1 20,9 17,7 9 5 26 14 ENE 1014,1 20 60 0,0
18.06.2017 16:00:00 32,2 14,3 34,5 20,7 17,7 16 8 27 14 ENE 1014,3 33 60 0,0
18.06.2017 15:00:00 31,5 15,0 36,7 20,5 17,6 7 4 16 8 N 1014,8 30 60 0,0
18.06.2017 14:00:00 30,5 15,4 35,5 20,3 17,7 5 3 15 8 WNW 1015,3 60 60 0,0
18.06.2017 13:00:00 29,1 16,0 33,5 20,2 17,6 5 3 18 10 SE 1015,7 60 60 0,0
18.06.2017 12:00:00 27,9 15,5 31,3 20,2 17,7 8 4 16 9 NE 1016,1 45 60 0,0
18.06.2017 11:00:00 25,8 15,5 27,6 20,2 17,6 8 5 18 10 NE 1016,5 47 60 0,0
18.06.2017 10:00:00 23,7 15,2 23,5 20,2 17,6 11 6 17 9 E 1016,7 53 60 0,0
18.06.2017 09:00:00 21,6 14,7 18,2 20,3 17,6 3 1 8 4 E 1017,1 57 60 0,0
18.06.2017 08:00:00 18,9 15,0 12,1 20,5 17,6 0 0 4 2 N 1017,3 48 60 0,0
18.06.2017 07:00:00 13,9 12,8 10,3 20,6 17,6 0 0 5 3 N 1017,2 44 23 0,0
18.06.2017 06:00:00 13,4 12,6 9,6 20,8 17,6 2 1 8 4 S 1017,4 60 0 0,0
18.06.2017 05:00:00 13,3 11,7 10,4 20,9 17,6 0 0 5 3 N 1017,7 53 0 0,0
18.06.2017 04:00:00 14,6 11,9 11,1 21,0 17,6 2 1 8 5 ENE 1018,2 60 0 0,0
18.06.2017 03:00:00 15,8 12,4 11,6 21,2 17,6 2 1 8 4 SE 1018,3 60 0 0,0
18.06.2017 02:00:00 16,5 12,5 12,3 21,3 17,6 0 0 14 8 N 1018,6 60 0 0,0
18.06.2017 01:00:00 19,6 12,6 - - - 8 4 16 9 NNE 1019,0 60 - 0,0
18.06.2017 00:00:00 20,9 12,6 14,3 21,4 17,6 9 5 14 8 NE 1019,2 60 0 0,0
17.06.2017 23:00:00 22,4 12,9 15,7 21,4 17,6 8 5 14 8 NNE 1019,2 60 0 0,0
17.06.2017 22:00:00 23,9 13,1 19,9 21,4 17,6 9 5 20 11 NE 1018,8 60 13 0,0
17.06.2017 21:00:00 26,8 13,2 24,6 21,4 17,6 14 8 35 19 NNE 1018,5 42 60 0,0
17.06.2017 20:00:00 28,9 13,2 27,7 21,3 17,6 18 10 32 17 NNE 1018,4 39 60 0,0
17.06.2017 19:00:00 30,3 13,1 29,8 21,1 17,6 18 10 31 17 N 1018,6 45 60 0,0
17.06.2017 18:00:00 31,2 13,9 34,3 21,0 17,6 16 8 34 18 NNE 1018,9 40 60 0,0
17.06.2017 17:00:00 31,3 13,1 34,6 20,8 17,6 17 9 29 16 NNE 1019,6 40 60 0,0

tt = Température de l'air
td = dewpoint
tt 5cm = Température de l'air 5cm
tt -20cm = Température de l'air -20cm
tt -100cm = Température de l'air -100cm
ff = Vitesse du vent
fx = gusts
dd = Direction du vent
ppp = reduced air pressure
vv = visibility
sd = Ensoleillement
rr = Quantités de précipitations

stations d'obs. à proximité